Location: Mountain Grove
(34.0887°N, 86.6172°W)
Time: 00:21:21
(UTC+00:00)

IDEFIX/ARIANE 42P - Pass Details

Date: 14 July 2020
Orbit: 784 x 804 km, 98.4° (Epoch: 12 August)

Event Time Altitude Azimuth Distance (km) Brightness Sun altitude
Rises 08:39:23 0° 16° (NNE) 3,282 6.9 -21.6°
Reaches altitude 10° 08:41:45 10° 20° (NNE) 2,348 6.0 -21.3°
Maximum altitude 08:46:52 61° 101° (E) 888 2.9 -20.6°
Enters shadow 08:49:47 25° 173° (S) 1,524 3.7 -20.2°
